Location: Dallas
(32.7833°N, 96.8000°W)
Time: 03:59:38
(UTC-06:00)

Envisat - Pass Details

Date: 29 October 2019
Orbit: 764 x 766 km, 98.1° (Epoch: 12 November)

Event Time Altitude Azimuth Distance (km) Brightness Sun altitude
Rises 20:12:03 0° 186° (S) 3,216 6.4 -20.1°
Reaches altitude 10° 20:14:30 10° 195° (SSW) 2,293 5.7 -20.6°
Maximum altitude 20:19:09 37° 262° (W) 1,181 4.5 -21.5°
Drops below altitude 10° 20:23:50 10° 329° (NNW) 2,305 5.8 -22.5°
Sets 20:26:19 0° 338° (NNW) 3,234 6.5 -23.1°
